STARLINK-5100 (55495 NORAD) Tracking and Keplerian Element Data

This shows tracking and keplerian element data for the satellite.

Feedback or suggestion? Click here.




ElementValue
Catalog55495
NameSTARLINK-5100
Epoch Orbit812
Epoch Day85.15538269
Epoch Year2023
RAAN76.133
Inclination43.0016
Eccentricity0.0001078
Argument of Perigee271.8112
Mean Anonmoly88.2632
Mean Motion15.71355483
Decay Rate8.332E-05
L11 55495U 23015AY 23085.15538269 .00008332 00000+0 66918-4 0 9995
L22 55495 43.0016 76.1330 0001078 271.8112 88.2632 15.71355483 8124



Live tracking and technical data element details for STARLINK-5100 (NORAD 55495). STARLINK-5100 can be tracked NOW for your location showing map with azimuth and elevation plus other details from your city location.







IsCatalogInMostPopularTable: catalog: 55495, numindb: -1

Insert: records affected: 1


GetName: 55495 STARLINK-5100

Hit Count: inserted at: Tue, 28 Mar 2023 03:08:52 GMT